Three Rivers, MI

4:37 PM EDT on May 28, 2017 (GMT -0400)
Three Rivers Municipal-Haines

Weather History for KHAI - April, 2013

Change the Weather History Date:

Tuesday, April 9, 2013

  Actual Average Record
Temperature  
Mean Temperature 53 °F -  
Max Temperature 69 °F 54 °F 76 °F (1969)
Min Temperature 37 °F 34 °F 19 °F (1972)
Degree Days  
Heating Degree Days 12    
Growing Degree Days 3 (Base 50)    
Moisture  
Dew Point 45 °F    
Average Humidity 80    
Maximum Humidity 93    
Minimum Humidity 56    
Precipitation  
Precipitation 0.00 in - - ()
Sea Level Pressure  
Sea Level Pressure 29.95 in    
Wind  
Wind Speed 3 mph (East)    
Max Wind Speed 10 mph    
Max Gust Speed 17 mph    
Visibility 7 miles    
Events Rain    
Averages and records for this station are not official NWS values.
T = Trace of Precipitation, MM = Missing Value Source: NWS Daily Summary

Daily Weather History Graph

Daily Weather History Graph

Search for Another Location

Airport or City:

Trip Planner

Search our weather history database for the weather conditions in past years. The results will help you decide how hot, cold, wet, or windy it might be!

Date:

Astronomy

Apr. 09, 2013 Rise Set
Actual Time 7:11 AM EDT 8:17 PM EDT
Civil Twilight 6:42 AM EDT 8:45 PM EDT
Nautical Twilight 6:08 AM EDT 9:20 PM EDT
Astronomical Twilight 5:32 AM EDT 9:55 PM EDT
Moon 6:33 AM EDT (4/9) 7:52 PM EDT (4/9)
Length of Visible Light 14h 03m
Length of Day
13h 05m
Waning Crescent, 1% of the Moon is Illuminated
Apr 9
Waning Crescent
Apr 10
New
Apr 18
First Quarter
Apr 25
Full
May 2
Last Quarter

Hourly Weather History & Observations

Time (EDT) Temp. Windchill Dew Point Humidity Pressure Visibility Wind Dir Wind Speed Gust Speed Precip Events Conditions
12:15 AM 37.9 °F - 35.1 °F 89% 30.00 in 5.0 mi Calm Calm - N/A   Scattered Clouds
12:34 AM 38.1 °F - 35.8 °F 91% 30.01 in 5.0 mi Calm Calm - N/A   Mostly Cloudy
12:55 AM 37.6 °F - 35.1 °F 91% 30.02 in 5.0 mi Calm Calm - N/A   Scattered Clouds
1:14 AM 37.8 °F - 35.4 °F 91% 30.02 in 5.0 mi Calm Calm - N/A   Scattered Clouds
1:35 AM 37.9 °F - 35.8 °F 92% 30.02 in 3.0 mi Calm Calm - N/A   Scattered Clouds
1:55 AM 37.9 °F 35.5 °F 36.0 °F 93% 30.02 in 3.0 mi NNE 3.5 mph - N/A   Scattered Clouds
2:14 AM 38.7 °F 36.3 °F 36.9 °F 93% 30.02 in 3.0 mi NE 3.5 mph - N/A   Mostly Cloudy
2:35 AM 38.3 °F - 36.5 °F 93% 30.02 in 3.0 mi Calm Calm - N/A   Scattered Clouds
2:54 AM 38.8 °F - 37.0 °F 93% 30.03 in 2.5 mi Calm Calm - N/A   Mostly Cloudy
3:14 AM 39.7 °F - 37.9 °F 93% 30.02 in 3.0 mi Calm Calm - N/A   Overcast
3:35 AM 39.4 °F - 37.6 °F 93% 30.02 in 3.0 mi Calm Calm - N/A   Mostly Cloudy
3:54 AM 39.6 °F 35.4 °F 37.8 °F 93% 30.01 in 4.0 mi NE 5.8 mph - N/A   Mostly Cloudy
4:14 AM 39.4 °F - 37.6 °F 93% 30.02 in 3.0 mi Calm Calm - N/A   Mostly Cloudy
4:35 AM 40.1 °F 38.0 °F 38.3 °F 93% 30.02 in 4.0 mi NE 3.5 mph - N/A   Overcast
4:54 AM 40.1 °F - 38.3 °F 93% 30.02 in 4.0 mi Calm Calm - N/A   Scattered Clouds
5:15 AM 40.1 °F 36.1 °F 38.3 °F 93% 30.03 in 3.0 mi ENE 5.8 mph - N/A   Scattered Clouds
5:35 AM 40.5 °F 37.3 °F 38.7 °F 93% 30.02 in 3.0 mi East 4.6 mph - N/A   Mostly Cloudy
5:54 AM 41.0 °F 39.0 °F 39.2 °F 93% 30.03 in 4.0 mi East 3.5 mph - N/A   Overcast
6:15 AM 41.0 °F 37.1 °F 39.2 °F 93% 30.03 in 5.0 mi East 5.8 mph - N/A   Overcast
6:34 AM 41.0 °F 37.1 °F 39.0 °F 93% 30.03 in 4.0 mi East 5.8 mph - N/A   Overcast
6:55 AM 41.0 °F 37.1 °F 39.0 °F 93% 30.03 in 5.0 mi East 5.8 mph - N/A   Mostly Cloudy
7:15 AM 41.2 °F 39.2 °F 39.2 °F 93% 30.03 in 5.0 mi ESE 3.5 mph - N/A   Overcast
7:34 AM 41.5 °F 38.6 °F 39.4 °F 92% 30.02 in 4.0 mi East 4.6 mph - N/A   Overcast
7:55 AM 41.9 °F 40.0 °F 39.6 °F 91% 30.03 in 4.0 mi ENE 3.5 mph - N/A   Mostly Cloudy
8:15 AM 42.3 °F 37.9 °F 39.7 °F 91% 30.01 in 4.0 mi ENE 6.9 mph - N/A   Scattered Clouds
8:34 AM 43.2 °F - 40.5 °F 90% 30.02 in 5.0 mi Calm Calm - N/A   Clear
8:55 AM 44.6 °F 40.7 °F 41.0 °F 87% 30.02 in 7.0 mi East 6.9 mph - N/A   Mostly Cloudy
9:14 AM 45.3 °F 43.0 °F 41.7 °F 87% 30.02 in 7.0 mi ESE 4.6 mph - N/A   Overcast
9:34 AM 46.6 °F - 42.1 °F 84% 30.01 in 7.0 mi ESE 6.9 mph - N/A   Mostly Cloudy
9:55 AM 48.2 °F - 42.8 °F 82% 29.99 in 10.0 mi SE 6.9 mph - N/A   Mostly Cloudy
10:14 AM 49.1 °F - 42.8 °F 79% 29.98 in 10.0 mi ESE 5.8 mph - N/A   Overcast
10:34 AM 50.9 °F - 43.2 °F 75% 29.99 in 10.0 mi ESE 4.6 mph - N/A   Overcast
10:55 AM 51.8 °F - 43.3 °F 73% 29.99 in 10.0 mi ESE 8.1 mph - N/A   Overcast
11:14 AM 52.0 °F - 43.2 °F 72% 29.98 in 10.0 mi SE 6.9 mph - N/A   Overcast
11:35 AM 52.9 °F - 43.7 °F 71% 29.96 in 10.0 mi ESE 8.1 mph - N/A   Overcast
11:55 AM 55.2 °F - 44.1 °F 66% 29.96 in 10.0 mi SE 8.1 mph - N/A   Overcast
12:14 PM 56.5 °F - 44.6 °F 64% 29.95 in 10.0 mi ESE 4.6 mph - N/A   Overcast
12:35 PM 57.2 °F - 45.0 °F 64% 29.94 in 10.0 mi SE 4.6 mph - N/A   Overcast
12:55 PM 58.8 °F - 46.2 °F 63% 29.92 in 10.0 mi SSE 10.4 mph - N/A   Overcast
1:14 PM 60.1 °F - 46.6 °F 61% 29.91 in 10.0 mi SSE 9.2 mph - N/A   Overcast
1:35 PM 61.0 °F - 47.1 °F 60% 29.90 in 10.0 mi SE 4.6 mph - N/A   Overcast
1:54 PM 62.1 °F - 47.7 °F 59% 29.90 in 10.0 mi SSE 8.1 mph - N/A   Overcast
2:14 PM 63.1 °F - 48.4 °F 59% 29.89 in 10.0 mi South 3.5 mph - N/A   Overcast
2:35 PM 65.7 °F - 50.4 °F 58% 29.87 in 10.0 mi SSE 5.8 mph - N/A   Mostly Cloudy
2:54 PM 67.1 °F - 51.1 °F 56% 29.87 in 10.0 mi South 8.1 mph - N/A   Mostly Cloudy
3:14 PM 67.1 °F - 52.3 °F 59% 29.87 in 10.0 mi South 4.6 mph - N/A   Overcast
3:34 PM 66.7 °F - 52.5 °F 60% 29.87 in 10.0 mi Calm Calm - N/A   Overcast
3:54 PM 66.6 °F - 52.7 °F 61% 29.87 in 10.0 mi Calm Calm - N/A Rain Light Rain
4:14 PM 64.0 °F - 55.4 °F 73% 29.86 in 10.0 mi Calm Calm - N/A   Overcast
4:34 PM 64.0 °F - 55.6 °F 74% 29.85 in 10.0 mi Calm Calm - N/A   Overcast
4:55 PM 64.0 °F - 57.6 °F 79% 29.84 in 5.0 mi Calm Calm - N/A   Haze
5:14 PM 66.2 °F - 56.3 °F 70% 29.83 in 10.0 mi Calm Calm - N/A   Overcast
5:34 PM 68.9 °F - 57.0 °F 66% 29.83 in 10.0 mi South 3.5 mph - N/A   Overcast
5:55 PM 69.3 °F - 57.0 °F 65% 29.85 in 10.0 mi Calm Calm - N/A   Overcast
6:14 PM 67.8 °F - 57.2 °F 69% 29.85 in 10.0 mi Calm Calm - N/A   Overcast
6:35 PM 68.0 °F - 57.0 °F 68% 29.85 in 10.0 mi South 3.5 mph - N/A   Overcast
6:55 PM 68.0 °F - 57.2 °F 68% 29.85 in 7.0 mi Calm Calm - N/A Rain Light Rain
7:14 PM 66.0 °F - 57.2 °F 73% 29.85 in 10.0 mi Calm Calm - N/A   Overcast
7:35 PM 63.5 °F - 57.7 °F 81% 29.85 in 10.0 mi Calm Calm - N/A   Overcast
7:54 PM 64.0 °F - 56.7 °F 77% 29.85 in 10.0 mi Calm Calm - N/A   Overcast
8:15 PM 62.8 °F - 55.9 °F 78% 29.86 in 10.0 mi NNW 3.5 mph - N/A   Overcast
8:34 PM 61.0 °F - 52.2 °F 73% 29.88 in 10.0 mi North 8.1 mph 17.3 mph N/A   Overcast
8:55 PM 58.3 °F - 50.9 °F 76% 29.89 in 10.0 mi North 3.5 mph - N/A   Overcast
9:15 PM 56.3 °F - 50.2 °F 80% 29.90 in 7.0 mi North 10.4 mph - N/A   Overcast
9:34 PM 54.3 °F - 49.1 °F 83% 29.91 in 7.0 mi NE 9.2 mph - N/A   Overcast
9:55 PM 52.7 °F - 47.7 °F 83% 29.92 in 7.0 mi NNE 9.2 mph - N/A   Overcast
10:15 PM 51.8 °F - 47.3 °F 85% 29.94 in 7.0 mi North 6.9 mph - N/A   Overcast
10:55 PM 51.1 °F - 46.6 °F 85% 29.94 in 5.0 mi NE 9.2 mph - N/A   Overcast
11:14 PM 50.5 °F - 46.0 °F 85% 29.94 in 5.0 mi NE 8.1 mph - N/A   Haze
11:34 PM 50.0 °F - 45.5 °F 85% 29.95 in 7.0 mi NE 9.2 mph - N/A   Overcast
11:55 PM 49.5 °F - 45.0 °F 84% 29.95 in 7.0 mi NE 8.1 mph - N/A   Overcast